GFSSW_850_thetae_333.txt.gz
Theta_e
301 300 302 305 307 311 314 315 312 312 310 306 309 312 315 316 315 314 309 310 307 309 317 314 321 327 325 319 319 318 320 318 315 312 311 312 312 314 314 316 322 321 319 324 333
300 300 301 301 306 308 313 315 313 312 308 303 310 312 315 316 316 315 309 310 307 313 315 315 318 320 317 313 314 317 321 317 313 311 311 311 311 311 313 312 311 326 327 331 334
300 299 299 300 304 307 311 313 313 312 305 308 310 312 312 314 314 313 311 309 309 316 314 316 317 316 315 315 313 314 318 314 314 313 312 311 310 311 309 308 309 310 328 332 336
300 298 296 298 301 304 307 310 313 307 308 308 309 312 311 312 313 309 312 310 310 315 313 315 314 314 315 316 315 315 313 313 314 314 312 310 310 309 309 308 310 315 323 328 331
298 297 297 299 302 303 306 311 309 310 309 309 309 311 311 309 308 310 310 309 311 315 313 314 314 314 315 315 315 316 315 314 315 314 311 312 310 309 309 310 312 314 317 320 320
298 296 295 299 302 302 303 309 310 311 309 308 309 310 310 304 307 310 306 309 309 315 313 312 315 314 313 314 316 315 315 315 315 315 312 312 310 310 310 310 312 313 313 313 314
299 298 295 299 302 302 304 307 311 311 311 308 309 309 307 306 306 309 305 309 308 311 314 313 314 314 314 315 316 315 317 317 316 315 312 313 313 309 308 310 311 312 312 313 313
299 298 295 297 301 302 304 307 311 311 312 310 310 309 304 303 306 309 305 310 309 309 313 314 314 314 314 315 315 317 317 321 317 314 313 313 313 308 308 310 310 311 311 313 313
298 297 294 296 301 302 302 307 310 311 312 312 310 310 305 304 304 309 305 309 310 313 312 313 313 313 314 314 316 315 320 319 318 315 312 312 313 307 308 309 309 310 310 311 312
296 296 295 297 300 302 302 305 307 311 312 312 311 310 309 305 303 308 307 308 312 313 311 312 312 309 309 312 317 316 316 318 318 315 312 312 310 307 307 308 308 308 308 308 310
295 296 297 297 300 301 303 306 308 310 311 310 311 310 309 308 305 308 308 307 309 312 310 311 310 310 310 312 313 313 314 316 316 314 313 313 310 307 306 307 307 308 308 307 308
295 296 296 297 299 300 304 307 307 308 311 311 310 311 309 310 310 310 308 309 311 309 309 310 310 309 310 311 312 313 315 316 316 312 313 311 311 307 305 305 306 307 307 307 308
296 295 296 297 299 300 303 306 308 308 310 310 311 311 309 309 309 310 309 310 309 308 309 310 310 309 310 310 311 311 314 314 316 311 310 311 312 308 304 305 305 306 306 307 307
296 295 297 297 298 300 302 307 307 308 308 310 312 311 309 309 308 310 309 310 308 308 307 309 308 309 310 311 310 311 311 314 316 315 315 311 318 309 306 305 305 304 304 305 306
297 297 296 297 298 299 300 304 307 307 309 308 311 311 310 307 308 310 310 309 306 307 307 309 308 308 309 310 309 311 309 313 315 316 314 312 312 312 306 306 305 304 303 304 304
295 297 296 297 298 298 300 304 306 305 308 310 309 307 307 308 309 310 310 309 308 308 307 308 307 308 307 308 308 309 311 311 312 315 319 314 313 313 308 308 306 303 302 303 303
296 296 297 297 298 298 300 303 305 305 303 307 310 308 307 307 308 308 308 307 306 308 309 309 309 307 309 310 311 313 312 313 313 317 317 309 312 315 308 305 304 302 300 300 301
297 297 297 298 297 297 299 302 306 298 305 308 310 309 309 308 308 307 307 307 306 305 306 309 311 308 307 309 311 312 312 314 315 314 312 310 313 311 302 301 303 301 300 299 299
293 294 295 295 296 297 300 303 299 299 304 309 309 310 310 308 306 308 307 307 306 304 307 308 309 307 307 307 310 312 314 311 313 304 311 310 308 302 299 298 297 296 297 297 297
293 294 295 296 295 298 299 302 301 305 308 309 311 310 309 308 308 307 308 306 307 305 305 307 310 306 307 308 307 310 310 314 313 317 316 312 311 312 302 300 297 295 294 295 296
293 294 294 296 297 298 299 298 300 302 306 310 308 310 308 308 306 308 307 306 305 305 305 305 307 307 307 307 309 310 311 311 312 312 314 312 310 304 303 301 297 295 294 295 294
293 286 295 296 294 293 292 292 299 301 303 307 308 308 308 307 308 305 306 306 306 305 307 304 305 307 307 305 305 307 310 309 315 311 307 309 309 298 298 299 297 295 294 294 295
293 292 295 296 287 284 287 293 298 300 302 305 308 308 307 308 310 307 305 306 306 306 307 305 300 301 306 306 304 306 306 309 305 306 308 311 310 297 297 297 296 294 294 294 294
292 282 294 295 292 289 292 290 294 299 300 300 303 306 309 307 307 308 307 305 306 308 309 306 305 307 308 308 306 308 307 308 311 312 310 309 307 299 296 295 294 293 294 294 293
291 285 289 283 286 293 292 288 293 294 299 299 302 305 309 308 305 307 307 306 305 307 309 305 306 303 307 308 307 307 309 308 310 311 311 310 305 304 299 296 294 293 294 293 293
291 289 289 288 291 291 293 293 292 295 295 299 301 302 301 307 303 305 306 307 308 307 308 307 303 303 303 307 305 305 306 308 308 309 309 305 303 301 299 297 293 293 293 292 293
291 290 292 289 290 291 286 290 291 294 297 299 299 299 301 301 301 302 301 307 307 307 309 308 306 304 307 307 308 306 307 306 307 307 308 308 309 297 295 296 294 293 294 293 294

GFSSW_850_thetae_336.txt.gz
Theta_e
302 301 301 303 306 309 312 314 313 311 310 306 309 311 313 312 313 310 308 306 307 310 316 316 324 324 321 318 318 318 322 319 320 316 315 314 315 313 314 322 325 325 323 327 334
300 299 300 302 306 307 312 314 312 312 311 303 308 311 313 313 314 312 309 309 307 313 314 317 321 322 319 316 318 321 323 319 313 314 314 313 313 312 314 317 320 327 329 332 333
300 297 297 299 304 306 310 313 312 311 309 303 309 311 314 316 315 314 309 308 307 315 314 318 319 321 315 315 316 315 324 316 314 314 313 312 313 312 313 315 312 315 324 331 333
299 297 295 298 302 307 309 311 312 308 304 307 310 311 314 314 318 311 311 309 313 314 314 317 316 317 315 317 315 316 315 316 315 314 312 312 312 312 311 311 311 313 321 327 330
298 296 295 300 302 307 307 311 309 309 309 309 309 311 311 310 309 310 312 309 315 314 315 316 316 316 317 315 316 315 315 315 315 314 312 312 312 312 311 311 312 313 317 321 324
298 296 295 299 301 302 306 310 310 311 308 308 310 311 310 310 309 310 309 309 314 313 314 314 315 315 315 316 318 316 315 315 316 312 312 313 311 312 310 311 312 313 313 313 314
298 297 295 299 301 302 305 309 311 310 308 309 310 311 307 309 308 307 307 308 313 313 313 313 314 314 314 316 316 316 318 318 316 314 312 314 315 313 309 311 312 312 312 312 313
298 297 295 298 301 301 304 308 310 311 309 308 308 309 308 305 309 305 306 308 311 315 313 313 314 314 315 316 316 317 318 319 318 315 312 313 317 311 309 311 312 312 311 310 313
297 297 294 297 301 301 303 309 310 311 311 310 309 307 306 304 306 307 309 309 310 310 313 313 313 314 315 317 318 316 321 320 320 316 313 314 318 311 309 311 312 311 310 309 310
296 295 295 297 301 301 303 308 311 311 312 311 311 308 305 305 305 309 310 310 313 312 312 313 313 315 316 317 323 322 321 320 321 319 316 315 316 311 309 311 311 310 309 308 308
296 296 296 297 301 301 303 308 311 311 312 311 312 310 308 306 305 310 308 311 313 313 313 312 315 316 316 316 315 317 317 321 318 315 316 318 317 312 309 311 311 310 309 308 308
295 295 296 297 300 302 303 308 307 308 310 310 310 310 308 308 309 310 308 310 313 314 312 314 315 314 314 315 315 316 317 318 318 315 313 314 316 312 309 310 311 310 309 308 307
295 295 295 298 299 301 305 307 308 309 310 310 311 311 309 308 309 310 308 310 311 312 313 314 314 313 313 314 315 315 316 318 319 317 312 314 317 313 310 308 308 309 309 307 307
296 295 296 296 298 300 304 305 307 308 311 311 311 312 309 308 308 309 308 310 311 312 313 313 311 313 313 314 314 315 314 316 315 317 320 315 325 317 313 309 308 307 307 306 306
296 296 296 296 298 299 302 305 305 308 314 310 311 311 309 307 308 309 309 309 311 311 312 312 312 313 314 314 313 315 313 315 317 318 317 315 319 320 312 312 310 308 307 306 304
295 296 296 296 297 298 303 304 305 310 310 311 309 310 310 308 309 309 310 308 308 310 310 312 308 311 313 312 312 312 314 314 316 317 322 319 318 321 315 314 313 309 307 305 303
295 296 296 296 297 298 302 305 308 309 305 309 310 309 310 310 310 309 310 309 310 312 313 311 311 309 309 312 311 313 313 319 320 321 319 314 318 319 314 311 311 310 307 304 302
296 297 297 298 298 298 302 305 308 304 306 308 309 310 310 309 309 309 310 311 309 309 311 314 315 311 310 312 313 312 313 316 318 318 317 311 316 317 306 304 304 307 306 302 300
294 295 296 296 297 298 301 307 308 303 306 309 310 312 311 309 309 310 309 310 309 307 311 313 315 308 309 310 313 314 315 313 315 310 316 315 313 311 303 302 304 304 301 300 297
294 294 294 295 296 298 302 304 304 304 307 309 310 311 312 310 309 309 310 309 309 308 306 310 313 309 309 309 309 314 314 315 317 318 317 316 315 316 309 306 302 301 300 298 296
293 294 295 295 298 298 302 301 301 302 303 309 309 312 310 310 309 309 310 308 309 308 307 308 310 309 309 311 314 314 315 315 315 315 317 318 316 311 310 307 303 301 300 298 295
293 295 295 296 297 295 300 298 300 301 303 307 309 309 310 309 309 309 310 308 307 307 309 307 310 312 312 308 307 313 313 315 316 316 315 315 315 304 304 303 303 301 299 296 295
292 292 295 296 296 296 293 295 298 301 302 304 307 309 308 309 311 310 308 307 305 307 309 308 312 314 311 310 306 310 312 314 315 312 317 317 317 302 302 302 301 300 297 295 294
291 293 294 294 292 294 295 295 298 299 301 301 303 304 309 309 309 310 309 307 306 307 308 307 310 311 313 310 312 311 311 312 315 318 317 317 316 308 304 303 300 299 297 295 293
291 292 290 294 292 294 293 293 296 298 298 300 302 304 307 310 310 310 308 307 306 306 309 309 310 310 310 309 309 310 312 312 314 316 317 316 315 314 309 304 301 299 296 294 293
291 290 288 288 291 292 293 294 295 298 299 298 301 303 303 304 307 308 308 308 309 307 309 309 311 309 308 309 308 310 310 311 312 314 315 314 313 306 304 304 300 298 296 295 293
291 290 291 291 291 292 293 294 293 295 297 297 300 301 301 302 301 301 301 301 301 306 309 309 311 309 312 310 308 309 309 310 311 311 313 314 313 302 302 301 301 298 296 296 295

GFSSW_850_thetae_339.txt.gz
Theta_e
302 301 300 302 304 309 312 314 313 310 307 306 310 311 312 310 313 305 312 308 309 314 316 320 324 323 318 318 320 321 328 332 324 316 316 316 318 316 320 326 328 327 328 334 333
300 299 299 303 305 308 312 313 313 311 310 304 309 310 312 312 314 311 309 307 309 315 317 322 324 323 320 319 320 325 330 330 320 315 315 315 316 316 318 324 328 326 329 332 334
300 297 296 301 306 307 311 311 312 311 311 304 308 312 313 313 316 312 310 308 311 315 317 322 323 320 317 319 320 321 330 320 314 314 313 315 315 315 318 320 317 322 324 332 333
298 296 298 303 305 305 311 312 311 308 305 305 309 312 314 314 317 313 309 308 314 315 317 320 322 320 317 319 319 319 321 317 316 314 313 314 315 315 315 315 315 318 322 328 331
296 295 299 302 304 306 310 311 310 308 307 308 310 313 314 313 312 311 310 311 314 314 317 319 321 322 318 317 318 319 316 318 316 313 313 314 315 315 314 315 316 317 318 321 326
298 296 297 302 304 305 310 310 311 309 309 309 310 312 312 315 311 310 310 313 315 315 317 317 318 319 317 317 319 316 316 316 315 315 313 314 313 315 313 314 315 317 317 316 318
298 296 295 301 303 302 309 310 311 309 308 309 311 311 310 309 310 309 310 314 316 315 315 315 316 316 319 318 317 317 317 316 316 314 314 313 315 315 312 314 315 315 315 313 313
297 296 295 300 302 302 306 311 311 308 310 310 310 311 309 307 312 307 308 312 315 314 315 314 315 316 318 317 317 318 318 321 317 316 312 315 323 314 312 314 315 315 314 312 311
295 295 295 300 302 302 307 311 311 309 309 308 311 312 309 305 312 308 312 312 316 314 314 313 315 317 317 320 319 318 322 319 319 317 315 314 320 314 312 314 315 315 314 312 311
296 295 295 299 301 304 307 310 312 310 310 311 309 311 307 308 310 309 311 313 313 314 314 315 315 317 319 321 326 323 322 320 322 319 318 318 317 313 312 314 315 315 313 312 311
295 295 296 298 301 302 308 310 311 312 311 312 310 310 308 308 309 310 311 314 313 313 317 315 317 319 319 319 317 319 322 322 320 319 319 320 320 319 313 313 315 314 313 312 310
295 295 296 298 301 303 307 307 307 307 311 311 312 310 309 309 310 310 311 313 314 316 315 316 317 317 316 316 316 318 319 320 320 315 315 318 319 318 315 313 315 315 313 312 309
295 295 296 298 301 304 307 308 308 309 311 311 311 311 309 308 308 310 310 312 315 316 315 317 316 316 315 316 317 317 318 319 320 318 315 315 317 317 317 313 313 314 314 311 310
294 295 296 298 301 303 306 307 307 308 313 312 312 312 309 309 307 310 309 311 313 316 315 316 314 314 315 316 316 318 315 315 318 319 322 317 326 324 318 315 313 312 312 311 310
295 295 295 297 299 302 304 306 307 309 316 312 312 311 310 306 308 309 310 310 312 314 315 315 314 315 316 316 315 316 315 316 317 319 319 318 320 320 319 318 314 312 312 311 310
295 295 295 297 299 301 305 305 307 312 315 312 310 311 311 308 308 309 309 309 310 312 313 314 310 314 315 315 314 314 315 315 316 317 323 320 319 321 319 318 317 314 312 311 310
295 296 295 295 299 300 304 304 311 314 307 311 311 311 311 310 309 309 310 310 311 312 312 313 313 312 311 314 314 314 314 320 321 321 319 316 320 320 319 316 316 316 312 311 309
297 297 297 297 298 300 304 307 311 308 308 309 309 311 311 310 309 309 309 311 310 310 311 313 314 313 312 314 314 314 314 318 320 321 319 315 318 319 314 309 311 309 313 310 307
296 297 297 297 298 300 304 308 311 307 308 309 310 312 312 310 310 309 308 309 309 310 311 312 313 313 313 313 314 314 315 314 316 316 317 317 316 314 309 307 308 309 311 309 306
295 296 296 296 298 302 304 308 306 306 307 309 310 312 313 311 310 310 309 308 309 309 309 311 312 313 312 311 313 314 314 314 316 319 319 317 317 318 314 311 308 308 309 307 304
295 296 295 295 298 302 306 306 304 304 304 310 309 310 312 312 311 310 309 309 308 309 309 310 311 311 311 312 314 313 315 314 315 315 316 317 317 313 313 313 309 308 306 305 301
295 298 294 296 299 297 303 302 301 303 304 307 309 310 310 312 311 311 310 309 308 308 309 309 310 313 312 311 311 314 314 315 317 316 316 316 317 311 310 308 309 307 304 303 301
296 295 295 297 300 299 298 297 300 303 303 304 307 309 310 310 311 312 310 309 308 309 308 309 313 314 313 312 310 311 313 315 316 315 316 318 316 307 307 306 306 307 304 302 299
292 297 295 294 294 297 298 299 301 300 302 302 303 304 309 310 310 311 311 310 308 308 309 308 310 311 312 311 312 312 312 314 315 316 317 316 316 315 310 308 306 305 303 301 298
291 296 294 296 294 297 297 297 299 300 300 302 303 303 307 310 310 311 310 310 308 307 308 309 312 310 310 311 311 311 313 314 315 316 317 317 316 315 316 315 308 305 303 300 298
294 293 289 292 294 295 296 297 298 299 300 299 302 303 305 306 307 309 307 310 310 308 308 308 311 310 310 310 311 310 310 312 314 315 316 316 317 316 312 312 309 305 302 300 298
292 290 293 294 294 295 297 297 296 297 298 300 300 301 302 304 303 303 303 302 301 303 307 308 310 310 312 310 311 311 309 310 311 313 313 315 315 315 314 308 308 306 302 300 299

GFSSW_850_thetae_345.txt.gz
Theta_e
298 298 298 304 305 308 313 314 312 308 306 304 311 313 314 310 306 308 311 312 314 317 320 324 322 319 321 323 322 323 325 328 326 318 315 316 316 327 326 325 329 329 331 335 334
296 300 301 306 305 308 312 314 312 310 306 303 310 311 314 310 309 312 311 309 315 319 323 325 321 320 321 321 322 323 326 327 316 314 314 315 315 316 326 326 326 330 332 334 334
295 302 305 306 307 308 312 313 312 310 307 303 310 308 312 309 312 312 307 309 316 320 322 322 323 322 320 321 320 320 322 314 314 314 314 315 315 317 319 317 321 328 332 331 332
294 301 303 305 307 310 313 313 311 310 308 304 306 310 313 313 316 312 308 313 316 322 323 324 323 321 320 320 320 321 316 315 315 313 314 315 315 315 316 316 321 327 331 330 331
295 298 303 304 307 309 312 311 308 306 305 307 311 314 317 314 313 309 308 314 316 321 322 323 323 321 320 318 319 318 315 314 313 313 315 316 315 315 315 318 321 325 328 330 330
296 295 302 302 305 310 311 311 307 307 308 309 313 315 315 312 312 309 310 315 317 319 319 318 321 322 318 319 318 317 316 315 314 314 314 314 314 314 315 318 321 322 323 326 327
295 295 300 302 304 310 310 311 309 308 309 312 313 312 311 312 312 309 314 316 317 317 316 318 317 319 319 317 316 317 316 315 315 314 313 314 314 314 315 317 319 318 320 321 322
294 295 300 303 304 309 310 310 309 308 309 313 312 311 309 312 311 310 315 316 315 315 316 318 319 319 318 317 317 316 317 319 316 314 313 314 318 312 314 316 317 317 318 321 322
295 296 301 304 306 310 310 309 309 310 312 312 312 311 309 311 312 312 316 315 315 314 316 316 317 318 318 316 316 317 321 320 317 314 312 314 318 313 313 315 315 315 315 315 315
295 296 300 304 307 310 310 309 309 311 312 311 312 309 307 312 312 312 314 315 314 313 314 315 316 315 316 318 323 321 322 319 320 317 315 314 313 313 313 313 315 315 315 314 313
294 297 300 303 308 310 309 310 311 311 312 310 309 309 310 310 311 313 315 314 314 314 314 315 314 316 317 319 317 320 321 321 319 318 316 316 316 314 313 312 313 314 314 314 314
294 297 300 304 309 310 311 311 308 308 311 311 309 309 310 310 310 313 314 314 314 313 314 313 315 315 316 317 316 319 322 321 320 314 318 317 317 316 313 312 313 314 315 315 314
294 297 301 305 309 310 310 309 309 309 311 311 311 308 308 310 310 311 313 313 312 312 314 314 314 314 315 315 316 316 318 319 320 316 314 313 313 314 314 313 313 314 315 315 315
294 297 301 306 308 309 309 308 309 310 306 312 311 309 306 308 310 309 312 311 314 313 313 314 314 314 314 315 315 317 315 315 317 318 317 314 318 313 316 315 313 313 314 315 314
294 296 300 303 307 308 308 309 308 310 304 311 311 310 307 307 309 310 310 310 311 314 313 313 313 313 314 314 314 315 313 314 316 316 316 316 312 314 313 317 314 313 313 314 314
294 295 299 304 306 308 308 308 308 301 304 308 309 310 308 307 308 309 309 310 309 311 312 312 311 312 313 313 313 312 313 314 314 314 310 314 314 311 314 316 316 313 313 314 314
294 294 296 302 304 308 308 309 302 301 304 308 310 309 309 307 308 309 309 308 309 310 311 311 312 311 312 314 313 313 312 310 311 317 314 313 315 313 314 313 313 313 314 313 314
296 295 296 299 303 307 307 301 300 303 306 308 308 310 309 308 307 307 307 308 307 307 308 311 309 310 310 311 313 311 312 312 315 317 315 312 315 313 311 311 311 314 315 313 313
297 296 296 298 303 305 306 297 298 303 307 309 309 310 309 309 309 306 306 306 307 306 308 308 309 309 309 311 311 312 313 312 312 308 312 311 310 310 308 308 308 310 312 312 312
297 297 297 298 304 304 300 304 301 306 306 309 307 308 308 308 307 307 307 305 306 306 307 308 309 309 310 311 311 311 311 313 311 310 314 312 311 312 312 310 307 307 310 310 311
297 298 296 299 304 304 296 302 303 305 306 308 308 309 310 310 307 307 307 306 305 306 306 307 308 308 310 310 311 311 311 312 311 311 315 314 311 308 310 310 308 305 309 311 311
295 290 295 299 296 297 298 292 301 304 305 306 308 308 307 309 310 309 307 306 307 307 306 307 308 306 307 309 308 309 311 311 312 312 310 311 313 309 307 307 309 308 309 311 311
296 295 295 298 289 282 293 294 299 302 303 304 306 307 307 308 309 310 310 309 309 307 307 307 304 300 305 305 308 309 310 311 311 312 314 314 312 306 305 306 308 308 309 310 310
293 286 294 296 295 293 289 291 294 300 303 304 305 304 306 307 307 306 309 309 308 307 308 308 308 307 307 304 307 309 309 310 311 312 313 313 313 310 307 306 305 307 308 308 308
293 288 291 284 289 291 294 291 294 295 300 301 301 303 305 302 304 306 308 309 308 308 307 308 306 306 307 306 308 307 306 308 310 311 313 312 312 312 310 310 307 311 309 307 307
291 292 293 294 294 290 290 286 293 296 295 293 294 300 302 302 302 305 304 306 309 304 306 307 307 305 307 307 305 307 307 308 307 308 310 311 311 311 311 311 311 312 309 306 307
292 293 292 292 291 289 287 291 293 296 297 298 297 296 297 299 302 303 304 303 302 302 302 303 306 307 309 306 305 307 307 307 306 306 307 309 310 309 308 307 310 311 308 309 310